Grand Etang, Nova Scotia

4:45 PM AST on February 27, 2017 (GMT -0400)
Grand Etang

Weather History for CWZQ - October, 2012

Change the Weather History Date:

Monday, October 29, 2012

  Actual Average Record
Temperature  
Mean Temperature 57 °F -  
Max Temperature 59 °F - - ()
Min Temperature 55 °F - - ()
Degree Days  
Heating Degree Days 8    
Growing Degree Days 7 (Base 50)    
Moisture  
Dew Point 50 °F    
Average Humidity 77    
Maximum Humidity 83    
Minimum Humidity 69    
Precipitation  
Precipitation 0.00 in - - ()
Sea Level Pressure  
Sea Level Pressure 30.09 in    
Wind  
Wind Speed 13 mph ()    
Max Wind Speed 47 mph    
Max Gust Speed 61 mph    
T = Trace of Precipitation, MM = Missing Value Source: Averaged Metar Reports

Daily Weather History Graph

Daily Weather History Graph

Search for Another Location

Airport or City:

Trip Planner

Search our weather history database for the weather conditions in past years. The results will help you decide how hot, cold, wet, or windy it might be!

Date:

Astronomy

Oct. 29, 2012 Rise Set
Actual Time 7:42 AM ADT 5:52 PM ADT
Civil Twilight 7:10 AM ADT 6:24 PM ADT
Nautical Twilight 6:35 AM ADT 6:59 PM ADT
Astronomical Twilight 6:00 AM ADT 7:34 PM ADT
Moon 5:39 PM ADT (10/29) 7:29 AM ADT (10/29)
Length of Visible Light 11h 13m
Length of Day
10h 10m
Full, 100% of the Moon is Illuminated
Oct 29
Full
Oct 29
Full
Nov 6
Last Quarter
Nov 13
New
Nov 20
First Quarter

Hourly Weather History & Observations

Time (ADT) Temp. Dew Point Humidity Pressure Visibility Wind Dir Wind Speed Gust Speed Precip Events Conditions
12:00 AM 57.9 °F 51.1 °F 78% 30.03 in - NNE 10.4 mph 18.4 mph N/A   Unknown
12:20 AM 58.1 °F 51.1 °F 77% - - North 8.1 mph 24.2 mph N/A   Unknown
12:40 AM 57.7 °F 50.9 °F 78% - - NW 11.5 mph 19.6 mph N/A   Unknown
1:00 AM 57.7 °F 50.7 °F 77% 30.04 in - NNW 11.5 mph - N/A   Unknown
1:20 AM 57.4 °F 50.7 °F 78% - - NNE 8.1 mph 19.6 mph N/A   Unknown
1:40 AM 57.4 °F 50.4 °F 77% - - NNE 9.2 mph 18.4 mph N/A   Unknown
2:00 AM 57.0 °F 50.2 °F 78% 30.05 in - ENE 12.7 mph 23.0 mph N/A   Unknown
2:20 AM 57.2 °F 50.2 °F 77% - - NNE 12.7 mph 25.3 mph N/A   Unknown
2:40 AM 57.0 °F 50.0 °F 77% - - NNE 11.5 mph 25.3 mph N/A   Unknown
3:20 AM 57.0 °F 49.8 °F 77% - - NE 9.2 mph 31.1 mph N/A   Unknown
3:40 AM 57.4 °F 50.4 °F 77% - - North 10.4 mph 19.6 mph N/A   Unknown
4:00 AM 57.2 °F 50.9 °F 79% 30.06 in - North 11.5 mph 19.6 mph N/A   Unknown
4:20 AM 57.9 °F 51.4 °F 79% - - NNE 9.2 mph 17.3 mph N/A   Unknown
4:40 AM 57.6 °F 51.4 °F 80% - - WNW 6.9 mph - N/A   Unknown
5:00 AM 57.6 °F 51.6 °F 81% 30.08 in - NNW 11.5 mph - N/A   Unknown
5:20 AM 57.0 °F 51.3 °F 81% - - North 9.2 mph - N/A   Unknown
5:40 AM 56.3 °F 50.9 °F 82% - - North 10.4 mph - N/A   Unknown
6:00 AM 56.3 °F 51.1 °F 83% 30.08 in - NNW 13.8 mph - N/A   Unknown
6:20 AM 56.5 °F 51.3 °F 83% - - North 8.1 mph - N/A   Unknown
6:40 AM 56.1 °F 50.9 °F 83% - - North 11.5 mph 19.6 mph N/A   Unknown
7:00 AM 56.5 °F 51.1 °F 82% 30.09 in - North 13.8 mph - N/A   Unknown
7:40 AM 57.2 °F 52.0 °F 83% - - North 11.5 mph 19.6 mph N/A   Unknown
8:00 AM 57.7 °F 52.3 °F 82% 30.09 in - NNE 12.7 mph 26.5 mph N/A   Unknown
8:20 AM 57.2 °F 51.8 °F 82% - - North 11.5 mph - N/A   Unknown
8:40 AM 57.4 °F 51.6 °F 81% - - NE 12.7 mph 20.7 mph N/A   Unknown
9:00 AM 57.0 °F 50.7 °F 79% 30.12 in - ENE 13.8 mph - N/A   Unknown
9:20 AM 57.4 °F 50.9 °F 79% - - ENE 6.9 mph - N/A   Unknown
10:00 AM 59.0 °F 51.3 °F 75% 30.13 in - East 11.5 mph 23.0 mph N/A   Unknown
10:20 AM 59.5 °F 50.9 °F 73% - - East 10.4 mph 25.3 mph N/A   Unknown
10:40 AM 59.0 °F 50.4 °F 73% - - ENE 9.2 mph 19.6 mph N/A   Unknown
11:00 AM 59.0 °F 50.5 °F 73% 30.12 in - NE 12.7 mph - N/A   Unknown
11:20 AM 59.7 °F 50.5 °F 72% - - ENE 12.7 mph 33.4 mph N/A   Unknown
11:40 AM 59.4 °F 50.4 °F 72% - - ENE 15.0 mph 29.9 mph N/A   Unknown
12:00 PM 58.3 °F 49.1 °F 71% 30.13 in - East 23.0 mph 42.6 mph N/A   Unknown
12:20 PM 59.5 °F 49.8 °F 70% - - East 15.0 mph 31.1 mph N/A   Unknown
12:40 PM 58.8 °F 48.9 °F 70% - - East 13.8 mph 41.4 mph N/A   Unknown
1:00 PM 58.5 °F 48.9 °F 71% 30.11 in - ENE 23.0 mph 29.9 mph N/A   Unknown
1:20 PM 59.4 °F 49.8 °F 71% - - SE 8.1 mph 23.0 mph N/A   Unknown
1:40 PM 58.6 °F 49.3 °F 71% - - East 11.5 mph 34.5 mph N/A   Unknown
2:00 PM 59.0 °F 49.3 °F 70% 30.09 in - ESE 17.3 mph 34.5 mph N/A   Unknown
2:40 PM 58.8 °F 48.9 °F 70% - - ESE 12.7 mph 25.3 mph N/A   Unknown
3:00 PM 59.4 °F 49.5 °F 70% 30.10 in - East 19.6 mph - N/A   Unknown
3:20 PM 59.0 °F 48.7 °F 69% - - ESE 15.0 mph 36.8 mph N/A   Unknown
3:40 PM 58.3 °F 48.6 °F 70% - - ESE 24.2 mph 44.9 mph N/A   Unknown
4:00 PM 58.8 °F 48.7 °F 69% 30.10 in - ESE 24.2 mph 34.5 mph N/A   Unknown
4:20 PM 58.6 °F 48.9 °F 70% - - East 11.5 mph 35.7 mph N/A   Unknown
4:40 PM 57.7 °F 48.7 °F 72% - - East 19.6 mph 41.4 mph N/A   Unknown
5:00 PM 56.5 °F 49.3 °F 77% 30.09 in - East 25.3 mph 43.7 mph N/A   Unknown
5:20 PM 57.2 °F 48.9 °F 74% - - ESE 24.2 mph 39.1 mph N/A   Unknown
5:40 PM 57.2 °F 49.5 °F 75% - - ESE 20.7 mph 39.1 mph N/A   Unknown
6:00 PM 55.8 °F 49.5 °F 79% 30.12 in - East 25.3 mph 38.0 mph N/A   Unknown
6:20 PM 55.8 °F 49.5 °F 79% - - East 16.1 mph 43.7 mph N/A   Unknown
6:40 PM 55.9 °F 49.6 °F 79% - - ESE 13.8 mph 35.7 mph N/A   Unknown
7:00 PM 56.1 °F 50.0 °F 80% 30.13 in - ESE 18.4 mph 28.8 mph N/A   Unknown
7:20 PM 56.1 °F 49.8 °F 79% - - ESE 10.4 mph 27.6 mph N/A   Unknown
7:40 PM 56.1 °F 49.8 °F 79% - - ESE 15.0 mph 31.1 mph N/A   Unknown
8:00 PM 56.3 °F 49.8 °F 79% 30.12 in - ESE 18.4 mph 36.8 mph N/A   Unknown
8:20 PM 56.3 °F 49.6 °F 78% - - ESE 24.2 mph 44.9 mph N/A   Unknown
8:40 PM 56.3 °F 49.8 °F 79% - - East 27.6 mph 47.2 mph N/A   Unknown
9:00 PM 56.5 °F 50.0 °F 79% 30.08 in - East 38.0 mph 57.5 mph N/A   Unknown
9:20 PM 56.3 °F 49.8 °F 79% - - ESE 42.6 mph 57.5 mph N/A   Unknown
9:40 PM 56.5 °F 50.0 °F 79% - - ESE 40.3 mph 57.5 mph N/A   Unknown
10:00 PM 56.5 °F 49.8 °F 78% 30.06 in - ESE 47.2 mph 61.0 mph N/A   Unknown
10:20 PM 56.7 °F 50.0 °F 78% - - ESE 47.2 mph 61.0 mph N/A   Unknown
10:40 PM 56.7 °F 49.8 °F 78% - - ESE 40.3 mph 55.2 mph N/A   Unknown
11:20 PM 56.1 °F 49.5 °F 78% - - ESE 35.7 mph 49.5 mph N/A   Unknown